Torna al catalogo

FALCON 9 R/B

AttivoMEO
NORAD 58348·ROCKET BODY·🇺🇸 United States

Lanciato Nov 12, 2023 da Cape Canaveral Space Force Station

Loading…

Prossimi Passaggi (prossime 24 ore)

TLE

AggiornatoSource: Space-Track

Epoca: Sep 14, 2026, 13:51 UTC

1 58348U 23175C   26257.57760694  .00000029  00000-0 -88866-2 0  9992
2 58348   9.0188  86.5320 1974411 352.2265   5.1211  7.34839601 76264

Traccia FALCON 9 R/B in tempo reale con AllMySat

Download on the App Store